User: anonymous   Login
Location: Unspecified
(0.0000°N, 0.0000°E)
Time: 18:46:34
(UTC+00:00)
Language:

OBJECT J - Orbit

View from above orbital plane
View from above orbital plane
View from above satellite
View from above satellite

Ground track
Ground track

The orbit data is extracted from the following two-line orbital elements,

1 43188U 18014J   18351.29563884  .00000712  00000-0  67671-4 0  9992
2 43188  97.7177 257.3121 0009414 257.7599 102.2568 14.96553504 47701
Epoch (UTC): 17 December 2018 07:05:43
Eccentricity: 0.0009414
inclination: 97.7177°
perigee height: 571 km
apogee height: 584 km
right ascension of ascending node: 257.3121°
argument of perigee: 257.7599°
revolutions per day: 14.96553504
mean anomaly at epoch: 102.2568°
orbit number at epoch: 4770

The dashed part of the orbit path shows where the satellite is in the earth's shadow,  

DLR